Location: Standeford and Andreas Observatories
(44.1397°N, 93.9969°W)
Time: 11:25:22
(UTC-06:00)

Cosmos 1500 Rocket - Visible Passes

Search period start: 28 February 2015 00:00
Search period end: 10 March 2015 01:00
Orbit: 603 x 634 km, 82.5° (Epoch: 27 February)

Date Brightness Start Highest point End Pass type
(mag) Time Alt. Az. Time Alt. Az. Time Alt. Az.
04 Mar 6.1 20:49:30 10° N 20:49:57 13° N 20:49:57 13° N visible
05 Mar 6.0 21:06:39 10° N 21:07:29 16° N 21:07:29 16° N visible
06 Mar 5.7 19:47:08 10° NNE 19:47:53 13° NE 19:47:53 13° NE visible
06 Mar 6.1 21:24:00 10° NNW 21:25:04 17° NNW 21:25:04 17° NNW visible
07 Mar 5.2 20:03:39 10° NNE 20:05:31 21° NNE 20:05:31 21° NNE visible
07 Mar 6.4 21:41:40 10° NW 21:42:42 15° NW 21:42:42 15° NW visible
08 Mar 4.6 21:20:32 10° N 21:23:12 34° NNE 21:23:12 34° NNE visible
08 Mar 6.7 22:59:57 10° NW 23:00:23 11° WNW 23:00:23 11° WNW visible
09 Mar 5.6 20:03:11 10° ENE 20:03:27 10° ENE 20:03:45 10° ENE visible
09 Mar 4.2 21:37:41 10° N 21:40:56 50° NNW 21:40:56 50° NNW visible
